When you browse on this site, cookies collect data to enhance your experience and personalize the content and advertising you see.
Visit our Privacy Policy to learn more. By continuing to use the site, you agree to this use of cookies and data.
  • In Portugal
  • List of Countries
  • For 7 days
  • Water Temperature
  • Satellite Maps
  • Weather Map
  • Weather Widgets
  • user-avatar
    Login

    Hourly Weather Cochabamba

    Today, 17 January, Thursday

    Time Temperature Precipitation Wind Pressure Humidity
    00:00 +16°C° 0 mm 2 mps 556 mmHg 73%
    01:00 +16°C° 0 mm 2 mps 556 mmHg 74%
    02:00 +15°C° 0 mm 2 mps 555 mmHg 73%
    03:00 +15°C° 0 mm 2 mps 555 mmHg 74%
    04:00 +15°C° 0 mm 2 mps 555 mmHg 74%
    05:00 +14°C° 0 mm 2 mps 555 mmHg 75%
    06:00 +15°C° 0 mm 2 mps 555 mmHg 70%
    07:00 +17°C° 0 mm 2 mps 556 mmHg 65%
    08:00 +18°C° 0 mm 2 mps 557 mmHg 60%
    09:00 +20°C° 0.2 mm 2 mps 558 mmHg 56%
    10:00 +21°C° 0.2 mm 2 mps 558 mmHg 52%
    11:00 +24°C° 0.2 mm 2 mps 559 mmHg 47%
    12:00 +24°C° 0.4 mm 3 mps 558 mmHg 48%
    13:00 +25°C° 0.4 mm 3 mps 558 mmHg 48%
    14:00 +25°C° 0.4 mm 4 mps 557 mmHg 48%
    15:00 +25°C° 0.2 mm 4 mps 557 mmHg 50%
    16:00 +23°C° 0.2 mm 4 mps 556 mmHg 53%
    17:00 +23°C° 0.2 mm 4 mps 556 mmHg 55%
    18:00 +21°C° 0.1 mm 3 mps 555 mmHg 60%
    19:00 +20°C° 0.1 mm 3 mps 555 mmHg 66%
    20:00 +19°C° 0.1 mm 3 mps 555 mmHg 72%
    21:00 +18°C° 0.1 mm 3 mps 556 mmHg 72%
    22:00 +18°C° 0.1 mm 2 mps 556 mmHg 72%
    23:00 +18°C° 0.1 mm 2 mps 557 mmHg 72%

    Tomorrow, 18 January, Friday

    Time Temperature Precipitation Wind Pressure Humidity
    00:00 +18°C° 0 mm 2 mps 557 mmHg 73%
    01:00 +17°C° 0 mm 2 mps 556 mmHg 73%
    02:00 +17°C° 0 mm 2 mps 556 mmHg 73%
    03:00 +16°C° 0 mm 2 mps 556 mmHg 74%
    04:00 +16°C° 0 mm 2 mps 555 mmHg 74%
    05:00 +15°C° 0 mm 1 mps 555 mmHg 74%
    06:00 +16°C° 0 mm 1 mps 556 mmHg 71%
    07:00 +18°C° 0 mm 1 mps 557 mmHg 68%
    08:00 +18°C° 0 mm 1 mps 557 mmHg 65%
    09:00 +20°C° 0.1 mm 1 mps 558 mmHg 60%
    10:00 +21°C° 0.1 mm 1 mps 558 mmHg 56%
    11:00 +22°C° 0.1 mm 1 mps 559 mmHg 52%
    12:00 +23°C° 0.3 mm 2 mps 558 mmHg 50%
    13:00 +23°C° 0.3 mm 2 mps 558 mmHg 49%
    14:00 +24°C° 0.3 mm 3 mps 558 mmHg 47%
    15:00 +22°C° 0.6 mm 3 mps 557 mmHg 51%
    16:00 +21°C° 0.6 mm 3 mps 556 mmHg 55%
    17:00 +21°C° 0.6 mm 3 mps 556 mmHg 59%
    18:00 +20°C° 0.4 mm 3 mps 556 mmHg 63%
    19:00 +19°C° 0.4 mm 3 mps 556 mmHg 67%
    20:00 +18°C° 0.4 mm 2 mps 556 mmHg 71%
    21:00 +17°C° 0 mm 2 mps 556 mmHg 72%
    22:00 +18°C° 0 mm 1 mps 556 mmHg 73%
    23:00 +16°C° 0 mm 1 mps 557 mmHg 74%

    Day after tomorrow, 19 January, Saturday

    Time Temperature Precipitation Wind Pressure Humidity
    00:00 +16°C° 0 mm 1 mps 556 mmHg 74%
    01:00 +16°C° 0 mm 1 mps 556 mmHg 74%
    02:00 +16°C° 0 mm 1 mps 556 mmHg 74%
    03:00 +16°C° 0 mm 1 mps 556 mmHg 73%
    04:00 +15°C° 0 mm 1 mps 556 mmHg 73%
    05:00 +15°C° 0 mm 1 mps 556 mmHg 73%
    06:00 +16°C° 0.1 mm 1 mps 556 mmHg 70%
    07:00 +16°C° 0.1 mm 1 mps 557 mmHg 68%
    08:00 +18°C° 0.1 mm 1 mps 557 mmHg 66%
    09:00 +18°C° 0.4 mm 1 mps 558 mmHg 63%
    10:00 +19°C° 0.4 mm 1 mps 558 mmHg 60%
    11:00 +20°C° 0.4 mm 1 mps 559 mmHg 58%
    12:00 +21°C° 0.4 mm 1 mps 558 mmHg 56%
    13:00 +22°C° 0.4 mm 1 mps 558 mmHg 55%
    14:00 +21°C° 0.4 mm 2 mps 558 mmHg 53%
    15:00 +23°C° 0.2 mm 2 mps 557 mmHg 53%
    16:00 +23°C° 0.2 mm 2 mps 557 mmHg 52%
    17:00 +23°C° 0.2 mm 2 mps 557 mmHg 52%
    18:00 +21°C° 0.5 mm 2 mps 557 mmHg 58%
    19:00 +19°C° 0.5 mm 2 mps 556 mmHg 65%
    20:00 +18°C° 0.5 mm 2 mps 556 mmHg 71%
    21:00 +17°C° 1.2 mm 2 mps 557 mmHg 75%
    22:00 +18°C° 1.2 mm 1 mps 557 mmHg 78%
    23:00 +16°C° 1.2 mm 1 mps 557 mmHg 82%

    20 January, Sunday

    Time Temperature Precipitation Wind Pressure Humidity
    00:00 +16°C° 1.8 mm 1 mps 557 mmHg 82%
    01:00 +16°C° 1.8 mm 1 mps 556 mmHg 83%
    02:00 +15°C° 1.8 mm 1 mps 556 mmHg 83%
    03:00 +15°C° 0.9 mm 1 mps 556 mmHg 82%
    04:00 +15°C° 0.9 mm 1 mps 555 mmHg 80%
    05:00 +15°C° 0.9 mm 1 mps 555 mmHg 79%
    06:00 +16°C° 0.1 mm 1 mps 556 mmHg 76%
    07:00 +16°C° 0.1 mm 1 mps 556 mmHg 73%
    08:00 +16°C° 0.1 mm 0 mps 557 mmHg 70%
    09:00 +19°C° 0.1 mm 1 mps 557 mmHg 66%
    10:00 +20°C° 0.1 mm 1 mps 557 mmHg 62%
    11:00 +21°C° 0.1 mm 1 mps 558 mmHg 57%
    12:00 +22°C° 0 mm 1 mps 558 mmHg 54%
    13:00 +23°C° 0 mm 2 mps 557 mmHg 52%
    14:00 +24°C° 0 mm 2 mps 557 mmHg 49%
    15:00 +24°C° 0.1 mm 2 mps 556 mmHg 51%
    16:00 +24°C° 0.1 mm 3 mps 556 mmHg 53%
    17:00 +22°C° 0.1 mm 3 mps 556 mmHg 55%
    18:00 +21°C° 0.1 mm 2 mps 556 mmHg 60%
    19:00 +20°C° 0.1 mm 2 mps 555 mmHg 65%
    20:00 +19°C° 0.1 mm 1 mps 555 mmHg 70%
    21:00 +19°C° 0.1 mm 1 mps 556 mmHg 72%
    22:00 +18°C° 0.1 mm 1 mps 556 mmHg 73%
    23:00 +16°C° 0.1 mm 0 mps 556 mmHg 75%

    21 January, Monday

    Time Temperature Precipitation Wind Pressure Humidity
    00:00 +15°C° 0 mm 0 mps 556 mmHg 76%
    01:00 +16°C° 0 mm 1 mps 555 mmHg 77%
    02:00 +16°C° 0 mm 1 mps 555 mmHg 77%
    03:00 +15°C° 0 mm 1 mps 555 mmHg 77%
    04:00 +15°C° 0 mm 1 mps 554 mmHg 76%
    05:00 +15°C° 0 mm 1 mps 554 mmHg 76%
    06:00 +16°C° 0 mm 1 mps 555 mmHg 72%
    07:00 +18°C° 0 mm 1 mps 556 mmHg 67%
    08:00 +16°C° 0 mm 0 mps 557 mmHg 63%
    09:00 +20°C° 0 mm 1 mps 557 mmHg 59%
    10:00 +21°C° 0 mm 1 mps 557 mmHg 56%
    11:00 +22°C° 0 mm 1 mps 558 mmHg 52%
    12:00 +23°C° 0.2 mm 1 mps 557 mmHg 51%
    13:00 +24°C° 0.2 mm 2 mps 557 mmHg 49%
    14:00 +24°C° 0.2 mm 2 mps 557 mmHg 48%
    15:00 +24°C° 0.2 mm 2 mps 556 mmHg 49%
    16:00 +24°C° 0.2 mm 2 mps 556 mmHg 50%
    17:00 +24°C° 0.2 mm 2 mps 555 mmHg 51%
    18:00 +23°C° 0.2 mm 2 mps 555 mmHg 57%
    19:00 +20°C° 0.2 mm 2 mps 555 mmHg 63%
    20:00 +19°C° 0.2 mm 2 mps 555 mmHg 69%
    21:00 +19°C° 0.2 mm 2 mps 556 mmHg 71%
    22:00 +19°C° 0.2 mm 1 mps 556 mmHg 73%
    23:00 +19°C° 0.2 mm 1 mps 557 mmHg 75%

    22 January, Tuesday

    Time Temperature Precipitation Wind Pressure Humidity
    00:00 +16°C° 0.2 mm 0 mps 556 mmHg 75%
    01:00 +16°C° 0.2 mm 0 mps 556 mmHg 75%
    02:00 +16°C° 0.2 mm 0 mps 556 mmHg 76%
    03:00 +16°C° 0.2 mm 0 mps 556 mmHg 76%
    04:00 +16°C° 0.2 mm 0 mps 556 mmHg 77%
    05:00 +15°C° 0.2 mm 0 mps 556 mmHg 77%
    06:00 +16°C° 0.1 mm 0 mps 556 mmHg 75%
    07:00 +18°C° 0.1 mm 1 mps 557 mmHg 74%
    08:00 +18°C° 0.1 mm 1 mps 557 mmHg 72%
    09:00 +20°C° 0 mm 1 mps 558 mmHg 66%
    10:00 +21°C° 0 mm 1 mps 558 mmHg 60%
    11:00 +22°C° 0 mm 1 mps 558 mmHg 54%
    12:00 +23°C° 0.4 mm 1 mps 558 mmHg 53%
    13:00 +24°C° 0.4 mm 2 mps 558 mmHg 51%
    14:00 +25°C° 0.4 mm 3 mps 557 mmHg 50%
    15:00 +24°C° 0.4 mm 3 mps 557 mmHg 52%
    16:00 +24°C° 0.4 mm 3 mps 556 mmHg 54%
    17:00 +24°C° 0.4 mm 3 mps 555 mmHg 56%
    18:00 +21°C° 0.3 mm 3 mps 555 mmHg 61%
    19:00 +20°C° 0.3 mm 3 mps 555 mmHg 65%
    20:00 +19°C° 0.3 mm 2 mps 555 mmHg 70%
    21:00 +19°C° 0 mm 2 mps 556 mmHg 72%
    22:00 +18°C° 0 mm 2 mps 556 mmHg 74%
    23:00 +18°C° 0 mm 2 mps 556 mmHg 75%
    Show more